owner,sensor,date,latitude,longitude,vertical_datum,wind_speed,wind_to_direction,wind_speed_of_gust,qcFlag 
TABS,ioos:station:wmo:42043:1,2006-09-01T00:00:00Z,28.9818,-94.9186,4.0,2.39415956,173.7657449,3.44,'11111222,11111222,11111222' 
TABS,ioos:station:wmo:42043:1,2006-09-01T00:30:00Z,28.9818,-94.9186,4.0,2.204382,160.6611444,3.16,'11111222,11111222,11111222' 
TABS,ioos:station:wmo:42043:1,2006-09-01T01:00:00Z,28.9818,-94.9186,4.0,2.065260274,162.5303775,3.11,'11111222,11111222,11111222' 
TABS,ioos:station:wmo:42043:1,2006-09-01T01:30:00Z,28.9818,-94.9186,4.0,2.758731593,159.8574543,3.57,'11111222,11111222,11111222' 
TABS,ioos:station:wmo:42043:1,2006-09-01T02:00:00Z,28.9818,-94.9186,4.0,3.112940732,163.1952288,4.53,'11111222,11111222,11111222' 
TABS,ioos:station:wmo:42043:1,2006-09-01T02:30:00Z,28.9818,-94.9186,4.0,2.790788419,154.0779341,3.51,'11111222,11111222,11111222' 
TABS,ioos:station:wmo:42043:1,2006-09-01T03:00:00Z,28.9818,-94.9186,4.0,2.724646766,157.1054073,3.49,'11111222,11111222,11111222' 
TABS,ioos:station:wmo:42043:1,2006-09-01T03:30:00Z,28.9818,-94.9186,4.0,2.760815097,160.9746489,3.73,'11111222,11111222,11111222' 
TABS,ioos:station:wmo:42043:1,2006-09-01T04:00:00Z,28.9818,-94.9186,4.0,2.319482701,187.4316011,3.08,'11111222,11111222,11111222' 
TABS,ioos:station:wmo:42043:1,2006-09-01T04:30:00Z,28.9818,-94.9186,4.0,2.104400152,168.2097371,2.98,'11111222,11111222,11111222' 
TABS,ioos:station:wmo:42043:1,2006-09-01T05:00:00Z,28.9818,-94.9186,4.0,2.245707016,184.0858177,3.1,'11111222,11111222,11111222' 
TABS,ioos:station:wmo:42043:1,2006-09-01T05:30:00Z,28.9818,-94.9186,4.0,3.06784941,201.2119857,4.01,'11111222,11111222,11111222' 
TABS,ioos:station:wmo:42043:1,2006-09-01T06:00:00Z,28.9818,-94.9186,4.0,3.121698256,201.2221563,4.06,'11111222,11111222,11111222' 
TABS,ioos:station:wmo:42043:1,2006-09-01T06:30:00Z,28.9818,-94.9186,4.0,2.864576758,194.7640997,4.02,'11111222,11111222,11111222' 
TABS,ioos:station:wmo:42043:1,2006-09-01T07:00:00Z,28.9818,-94.9186,4.0,3.164458879,208.9140578,4.01,'11111222,11111222,11111222' 
TABS,ioos:station:wmo:42043:1,2006-09-01T07:30:00Z,28.9818,-94.9186,4.0,2.800446393,215.8469941,3.73,'11111222,11111222,11111222' 
TABS,ioos:station:wmo:42043:1,2006-09-01T08:00:00Z,28.9818,-94.9186,4.0,2.893527259,206.9194185,4.02,'11111222,11111222,11111222' 
TABS,ioos:station:wmo:42043:1,2006-09-01T08:30:00Z,28.9818,-94.9186,4.0,3.134134649,213.2845731,3.94,'11111222,11111222,11111222' 
TABS,ioos:station:wmo:42043:1,2006-09-01T09:00:00Z,28.9818,-94.9186,4.0,3.276705663,218.059138,4.23,'11111222,11111222,11111222' 
TABS,ioos:station:wmo:42043:1,2006-09-01T09:30:00Z,28.9818,-94.9186,4.0,3.397793402,212.9886549,4.49,'11111222,11111222,11111222' 
TABS,ioos:station:wmo:42043:1,2006-09-01T10:00:00Z,28.9818,-94.9186,4.0,2.846278272,220.0118797,3.71,'11111222,11111222,11111222' 
TABS,ioos:station:wmo:42043:1,2006-09-01T10:30:00Z,28.9818,-94.9186,4.0,2.661766331,244.8791331,3.85,'11111222,11111222,11111222' 
TABS,ioos:station:wmo:42043:1,2006-09-01T11:00:00Z,28.9818,-94.9186,4.0,2.015167487,238.5974642,2.89,'11111222,11111222,11111222' 
TABS,ioos:station:wmo:42043:1,2006-09-01T11:30:00Z,28.9818,-94.9186,4.0,2.349170066,236.1070759,3.67,'11111222,11111222,11111222' 
TABS,ioos:station:wmo:42043:1,2006-09-01T12:00:00Z,28.9818,-94.9186,4.0,2.73490402,230.4895812,3.84,'11111222,11111222,11111222' 
TABS,ioos:station:wmo:42043:1,2006-09-01T12:30:00Z,28.9818,-94.9186,4.0,2.283265206,218.7774979,3.27,'11111222,11111222,11111222' 
TABS,ioos:station:wmo:42043:1,2006-09-01T13:00:00Z,28.9818,-94.9186,4.0,1.949897433,235.6580264,2.64,'11111222,11111222,11111222' 
TABS,ioos:station:wmo:42043:1,2006-09-01T13:30:00Z,28.9818,-94.9186,4.0,2.119929244,255.2427152,3.59,'11111222,11111222,11111222' 
TABS,ioos:station:wmo:42043:1,2006-09-01T14:00:00Z,28.9818,-94.9186,4.0,2.544661078,333.6361903,4.37,'11111222,11111222,11111222' 
TABS,ioos:station:wmo:42043:1,2006-09-01T14:30:00Z,28.9818,-94.9186,4.0,3.180015723,339.5703192,4.18,'11111222,11111222,11111222' 
TABS,ioos:station:wmo:42043:1,2006-09-01T15:00:00Z,28.9818,-94.9186,4.0,3.353356527,325.6937423,4.55,'11111222,11111222,11111222' 
TABS,ioos:station:wmo:42043:1,2006-09-01T15:30:00Z,28.9818,-94.9186,4.0,2.858828431,331.8212653,4.13,'11111222,11111222,11111222' 
TABS,ioos:station:wmo:42043:1,2006-09-01T16:00:00Z,28.9818,-94.9186,4.0,2.719503631,332.3983147,3.63,'11111222,11111222,11111222' 
TABS,ioos:station:wmo:42043:1,2006-09-01T16:30:00Z,28.9818,-94.9186,4.0,2.77353565,297.9509037,4.04,'11111222,11111222,11111222' 
TABS,ioos:station:wmo:42043:1,2006-09-01T17:00:00Z,28.9818,-94.9186,4.0,2.427859139,293.2914983,3.94,'11111222,11111222,11111222' 
TABS,ioos:station:wmo:42043:1,2006-09-01T17:30:00Z,28.9818,-94.9186,4.0,1.595054858,304.7859457,2.75,'11111222,11111222,11111222' 
TABS,ioos:station:wmo:42043:1,2006-09-01T18:00:00Z,28.9818,-94.9186,4.0,0.554436651,277.2531777,1.52,'11111222,11111222,11111222' 
TABS,ioos:station:wmo:42043:1,2006-09-01T18:30:00Z,28.9818,-94.9186,4.0,0.37,341.0751894,1.23,'11111222,11111222,11111222' 
TABS,ioos:station:wmo:42043:1,2006-09-01T19:00:00Z,28.9818,-94.9186,4.0,1.089082182,210.3323146,1.77,'11111222,11111222,11111222' 
TABS,ioos:station:wmo:42043:1,2006-09-01T19:30:00Z,28.9818,-94.9186,4.0,1.410567262,189.7963975,2.81,'11111222,11111222,11111222' 
TABS,ioos:station:wmo:42043:1,2006-09-01T20:00:00Z,28.9818,-94.9186,4.0,2.160833173,178.4090739,3.36,'11111222,11111222,11111222' 
TABS,ioos:station:wmo:42043:1,2006-09-01T20:30:00Z,28.9818,-94.9186,4.0,2.171681376,195.764369,3.52,'11111222,11111222,11111222' 
TABS,ioos:station:wmo:42043:1,2006-09-01T21:00:00Z,28.9818,-94.9186,4.0,2.650018868,202.4038136,3.83,'11111222,11111222,11111222' 
TABS,ioos:station:wmo:42043:1,2006-09-01T21:30:00Z,28.9818,-94.9186,4.0,2.490622412,209.8591568,3.66,'11111222,11111222,11111222' 
TABS,ioos:station:wmo:42043:1,2006-09-01T22:00:00Z,28.9818,-94.9186,4.0,2.37413142,213.4893975,3.61,'11111222,11111222,11111222' 
TABS,ioos:station:wmo:42043:1,2006-09-01T22:30:00Z,28.9818,-94.9186,4.0,3.18924756,225.6352859,4.19,'11111222,11111222,11111222' 
TABS,ioos:station:wmo:42043:1,2006-09-01T23:00:00Z,28.9818,-94.9186,4.0,3.450681092,214.6112717,4.97,'11111222,11111222,11111222' 
TABS,ioos:station:wmo:42043:1,2006-09-01T23:30:00Z,28.9818,-94.9186,4.0,2.82001773,217.0731971,4.32,'11111222,11111222,11111222' 
TABS,ioos:station:wmo:42043:1,2006-09-02T00:00:00Z,28.9818,-94.9186,4.0,3.055306859,207.9071654,4.09,'11111222,11111222,11111222' 
TABS,ioos:station:wmo:42043:1,2006-09-02T00:30:00Z,28.9818,-94.9186,4.0,3.133368794,204.1111736,4.62,'11111222,11111222,11111222' 
TABS,ioos:station:wmo:42043:1,2006-09-02T01:00:00Z,28.9818,-94.9186,4.0,3.410527818,191.6725338,4.59,'11111222,11111222,11111222' 
TABS,ioos:station:wmo:42043:1,2006-09-02T01:30:00Z,28.9818,-94.9186,4.0,3.210685285,197.0241787,4.02,'11111222,11111222,11111222' 
TABS,ioos:station:wmo:42043:1,2006-09-02T02:00:00Z,28.9818,-94.9186,4.0,2.938860323,207.7859265,4.75,'11111222,11111222,11111222' 
TABS,ioos:station:wmo:42043:1,2006-09-02T02:30:00Z,28.9818,-94.9186,4.0,3.147586377,203.7963017,4.22,'11111222,11111222,11111222' 
TABS,ioos:station:wmo:42043:1,2006-09-02T03:00:00Z,28.9818,-94.9186,4.0,2.852455083,211.9629357,3.96,'11111222,11111222,11111222' 
TABS,ioos:station:wmo:42043:1,2006-09-02T03:30:00Z,28.9818,-94.9186,4.0,2.854767942,208.4504257,3.67,'11111222,11111222,11111222' 
TABS,ioos:station:wmo:42043:1,2006-09-02T04:00:00Z,28.9818,-94.9186,4.0,2.119669786,200.1449262,3.15,'11111222,11111222,11111222' 
TABS,ioos:station:wmo:42043:1,2006-09-02T04:30:00Z,28.9818,-94.9186,4.0,2.18405586,204.3355526,3.07,'11111222,11111222,11111222' 
TABS,ioos:station:wmo:42043:1,2006-09-02T05:00:00Z,28.9818,-94.9186,4.0,2.601922366,182.2028035,3.44,'11111222,11111222,11111222' 
TABS,ioos:station:wmo:42043:1,2006-09-02T05:30:00Z,28.9818,-94.9186,4.0,1.655596569,190.0883567,2.59,'11111222,11111222,11111222' 
TABS,ioos:station:wmo:42043:1,2006-09-02T06:00:00Z,28.9818,-94.9186,4.0,1.761817244,182.6027666,3.76,'11111222,11111222,11111222' 
TABS,ioos:station:wmo:42043:1,2006-09-02T06:30:00Z,28.9818,-94.9186,4.0,1.443606595,190.3760311,2.22,'11111222,11111222,11111222' 
TABS,ioos:station:wmo:42043:1,2006-09-02T07:00:00Z,28.9818,-94.9186,4.0,2.920616373,178.8230683,3.68,'11111222,11111222,11111222' 
TABS,ioos:station:wmo:42043:1,2006-09-02T07:30:00Z,28.9818,-94.9186,4.0,2.846348538,176.1727546,4.44,'11111222,11111222,11111222' 
TABS,ioos:station:wmo:42043:1,2006-09-02T08:00:00Z,28.9818,-94.9186,4.0,2.313655117,176.7791778,3.74,'11111222,11111222,11111222' 
TABS,ioos:station:wmo:42043:1,2006-09-02T08:30:00Z,28.9818,-94.9186,4.0,2.891816038,170.2447573,4.05,'11111222,11111222,11111222' 
TABS,ioos:station:wmo:42043:1,2006-09-02T09:00:00Z,28.9818,-94.9186,4.0,2.893389016,177.226811,4.47,'11111222,11111222,11111222' 
TABS,ioos:station:wmo:42043:1,2006-09-02T09:30:00Z,28.9818,-94.9186,4.0,3.097934796,136.3082082,4.39,'11111222,11111222,11111222' 
TABS,ioos:station:wmo:42043:1,2006-09-02T10:00:00Z,28.9818,-94.9186,4.0,3.299121095,144.6241253,4.64,'11111222,11111222,11111222' 
TABS,ioos:station:wmo:42043:1,2006-09-02T10:30:00Z,28.9818,-94.9186,4.0,1.822800044,106.2480145,2.66,'11111222,11111222,11111222' 
TABS,ioos:station:wmo:42043:1,2006-09-02T11:00:00Z,28.9818,-94.9186,4.0,1.560160248,9.22059202,5.84,'11111222,11111222,11111222' 
TABS,ioos:station:wmo:42043:1,2006-09-02T11:30:00Z,28.9818,-94.9186,4.0,2.493531632,303.0526886,3.94,'11111222,11111222,11111222' 
TABS,ioos:station:wmo:42043:1,2006-09-02T12:00:00Z,28.9818,-94.9186,4.0,2.624061737,304.5984059,3.6,'11111222,11111222,11111222' 
TABS,ioos:station:wmo:42043:1,2006-09-02T12:30:00Z,28.9818,-94.9186,4.0,1.650484777,358.6110762,2.62,'11111222,11111222,11111222' 
TABS,ioos:station:wmo:42043:1,2006-09-02T13:00:00Z,28.9818,-94.9186,4.0,1.493084057,22.44249043,2.69,'11111222,11111222,11111222' 
TABS,ioos:station:wmo:42043:1,2006-09-02T13:30:00Z,28.9818,-94.9186,4.0,2.186801317,328.2722087,3.39,'11111222,11111222,11111222' 
TABS,ioos:station:wmo:42043:1,2006-09-02T14:00:00Z,28.9818,-94.9186,4.0,2.223960431,41.71881121,3.09,'11111222,11111222,11111222' 
TABS,ioos:station:wmo:42043:1,2006-09-02T14:30:00Z,28.9818,-94.9186,4.0,3.137339637,15.71937839,4.26,'11111222,11111222,11111222' 
TABS,ioos:station:wmo:42043:1,2006-09-02T15:00:00Z,28.9818,-94.9186,4.0,3.882177224,1.91877114,4.93,'11111222,11111222,11111222' 
TABS,ioos:station:wmo:42043:1,2006-09-02T15:30:00Z,28.9818,-94.9186,4.0,4.156500932,354.8927327,5.91,'11111222,11111222,11111222' 
TABS,ioos:station:wmo:42043:1,2006-09-02T16:00:00Z,28.9818,-94.9186,4.0,3.886232108,356.7545422,5.94,'11111222,11111222,11111222' 
TABS,ioos:station:wmo:42043:1,2006-09-02T16:30:00Z,28.9818,-94.9186,4.0,3.211744074,12.95426232,4.77,'11111222,11111222,11111222' 
TABS,ioos:station:wmo:42043:1,2006-09-02T17:00:00Z,28.9818,-94.9186,4.0,4.818142796,46.93404427,6.53,'11111222,11111222,11111222' 
TABS,ioos:station:wmo:42043:1,2006-09-02T17:30:00Z,28.9818,-94.9186,4.0,4.619491314,57.82335718,5.97,'11111222,11111222,11111222' 
TABS,ioos:station:wmo:42043:1,2006-09-02T18:00:00Z,28.9818,-94.9186,4.0,3.893995378,56.30959034,5.39,'11111222,11111222,11111222' 
TABS,ioos:station:wmo:42043:1,2006-09-02T18:30:00Z,28.9818,-94.9186,4.0,3.621670885,70.31387548,5.08,'11111222,11111222,11111222' 
TABS,ioos:station:wmo:42043:1,2006-09-02T19:00:00Z,28.9818,-94.9186,4.0,3.606244584,81.86949574,4.75,'11111222,11111222,11111222' 
TABS,ioos:station:wmo:42043:1,2006-09-02T19:30:00Z,28.9818,-94.9186,4.0,3.220062111,90.35628992,4.66,'11111222,11111222,11111222' 
TABS,ioos:station:wmo:42043:1,2006-09-02T20:00:00Z,28.9818,-94.9186,4.0,3.042581141,105.6353773,4.33,'11111222,11111222,11111222' 
TABS,ioos:station:wmo:42043:1,2006-09-02T20:30:00Z,28.9818,-94.9186,4.0,2.434768983,80.30515747,3.32,'11111222,11111222,11111222' 
TABS,ioos:station:wmo:42043:1,2006-09-02T21:00:00Z,28.9818,-94.9186,4.0,3.047950131,94.13960049,4.02,'11111222,11111222,11111222' 
TABS,ioos:station:wmo:42043:1,2006-09-02T21:30:00Z,28.9818,-94.9186,4.0,3.013917716,112.2253994,4.6,'11111222,11111222,11111222' 
TABS,ioos:station:wmo:42043:1,2006-09-02T22:00:00Z,28.9818,-94.9186,4.0,3.032754524,115.3824822,4.31,'11111222,11111222,11111222' 
TABS,ioos:station:wmo:42043:1,2006-09-02T22:30:00Z,28.9818,-94.9186,4.0,3.452723563,110.6923736,4.95,'11111222,11111222,11111222' 
TABS,ioos:station:wmo:42043:1,2006-09-02T23:00:00Z,28.9818,-94.9186,4.0,3.944375743,98.6029926,5.19,'11111222,11111222,11111222' 
TABS,ioos:station:wmo:42043:1,2006-09-02T23:30:00Z,28.9818,-94.9186,4.0,3.722593182,109.4574854,4.94,'11111222,11111222,11111222' 
TABS,ioos:station:wmo:42043:1,2006-09-03T00:00:00Z,28.9818,-94.9186,4.0,3.952948267,122.6049378,5.23,'11111222,11111222,11111222' 
TABS,ioos:station:wmo:42043:1,2006-09-03T00:30:00Z,28.9818,-94.9186,4.0,3.58403404,109.9015323,5.07,'11111222,11111222,11111222' 
TABS,ioos:station:wmo:42043:1,2006-09-03T01:00:00Z,28.9818,-94.9186,4.0,3.460924732,96.30403393,5.05,'11111222,11111222,11111222' 
TABS,ioos:station:wmo:42043:1,2006-09-03T01:30:00Z,28.9818,-94.9186,4.0,3.104593371,97.21698368,4.33,'11111222,11111222,11111222' 
TABS,ioos:station:wmo:42043:1,2006-09-03T02:00:00Z,28.9818,-94.9186,4.0,2.71773803,69.76435524,3.74,'11111222,11111222,11111222' 
TABS,ioos:station:wmo:42043:1,2006-09-03T02:30:00Z,28.9818,-94.9186,4.0,2.999083193,77.67801729,4.26,'11111222,11111222,11111222' 
TABS,ioos:station:wmo:42043:1,2006-09-03T03:00:00Z,28.9818,-94.9186,4.0,2.801749453,77.00499268,3.85,'11111222,11111222,11111222' 
TABS,ioos:station:wmo:42043:1,2006-09-03T03:30:00Z,28.9818,-94.9186,4.0,2.352615566,75.72709907,3.27,'11111222,11111222,11111222' 
TABS,ioos:station:wmo:42043:1,2006-09-03T04:00:00Z,28.9818,-94.9186,4.0,1.943656348,83.20365096,2.97,'11111222,11111222,11111222' 
TABS,ioos:station:wmo:42043:1,2006-09-03T04:30:00Z,28.9818,-94.9186,4.0,2.530494023,88.86740146,3.73,'11111222,11111222,11111222' 
TABS,ioos:station:wmo:42043:1,2006-09-03T05:00:00Z,28.9818,-94.9186,4.0,2.110213259,89.18500394,3.46,'11111222,11111222,11111222' 
TABS,ioos:station:wmo:42043:1,2006-09-03T05:30:00Z,28.9818,-94.9186,4.0,2.345655559,119.078682,3.58,'11111222,11111222,11111222' 
TABS,ioos:station:wmo:42043:1,2006-09-03T06:00:00Z,28.9818,-94.9186,4.0,2.325446194,113.0371969,3.29,'11111222,11111222,11111222' 
TABS,ioos:station:wmo:42043:1,2006-09-03T06:30:00Z,28.9818,-94.9186,4.0,2.402769236,82.10555651,3.3,'11111222,11111222,11111222' 
TABS,ioos:station:wmo:42043:1,2006-09-03T07:00:00Z,28.9818,-94.9186,4.0,2.127204739,76.68197625,3.04,'11111222,11111222,11111222' 
TABS,ioos:station:wmo:42043:1,2006-09-03T07:30:00Z,28.9818,-94.9186,4.0,3.040213808,83.38884718,4.05,'11111222,11111222,11111222' 
TABS,ioos:station:wmo:42043:1,2006-09-03T08:00:00Z,28.9818,-94.9186,4.0,2.591158042,79.77386698,3.58,'11111222,11111222,11111222' 
TABS,ioos:station:wmo:42043:1,2006-09-03T08:30:00Z,28.9818,-94.9186,4.0,2.631672472,76.59702716,3.89,'11111222,11111222,11111222' 
TABS,ioos:station:wmo:42043:1,2006-09-03T09:00:00Z,28.9818,-94.9186,4.0,2.912541845,95.31950939,3.95,'11111222,11111222,11111222' 
TABS,ioos:station:wmo:42043:1,2006-09-03T09:30:00Z,28.9818,-94.9186,4.0,2.212735863,87.15011119,3.37,'11111222,11111222,11111222' 
TABS,ioos:station:wmo:42043:1,2006-09-03T10:00:00Z,28.9818,-94.9186,4.0,1.812318956,72.66445469,3.36,'11111222,11111222,11111222' 
TABS,ioos:station:wmo:42043:1,2006-09-03T10:30:00Z,28.9818,-94.9186,4.0,2.21144749,51.05662235,3.51,'11111222,11111222,11111222' 
TABS,ioos:station:wmo:42043:1,2006-09-03T11:00:00Z,28.9818,-94.9186,4.0,3.295147948,351.6238037,4.46,'11111222,11111222,11111222' 
TABS,ioos:station:wmo:42043:1,2006-09-03T11:30:00Z,28.9818,-94.9186,4.0,3.929020234,343.132972,5.21,'11111222,11111222,11111222' 
TABS,ioos:station:wmo:42043:1,2006-09-03T12:00:00Z,28.9818,-94.9186,4.0,4.360240819,338.613256,5.27,'11111222,11111222,11111222' 
TABS,ioos:station:wmo:42043:1,2006-09-03T12:30:00Z,28.9818,-94.9186,4.0,4.880706916,334.9049435,6.14,'11111222,11111222,11111222' 
TABS,ioos:station:wmo:42043:1,2006-09-03T13:00:00Z,28.9818,-94.9186,4.0,4.949191853,342.1140266,6.49,'11111222,11111222,11111222' 
TABS,ioos:station:wmo:42043:1,2006-09-03T13:30:00Z,28.9818,-94.9186,4.0,5.031262267,353.6093092,6.5,'11111222,11111222,11111222' 
TABS,ioos:station:wmo:42043:1,2006-09-03T14:00:00Z,28.9818,-94.9186,4.0,5.143073011,15.33303848,6.7,'11111222,11111222,11111222' 
TABS,ioos:station:wmo:42043:1,2006-09-03T14:30:00Z,28.9818,-94.9186,4.0,5.118251655,28.21707941,6.76,'11111222,11111222,11111222' 
TABS,ioos:station:wmo:42043:1,2006-09-03T15:00:00Z,28.9818,-94.9186,4.0,4.812317529,27.203737,6.5,'11111222,11111222,11111222' 
TABS,ioos:station:wmo:42043:1,2006-09-03T15:30:00Z,28.9818,-94.9186,4.0,4.925890782,33.23813278,6.51,'11111222,11111222,11111222' 
TABS,ioos:station:wmo:42043:1,2006-09-03T16:00:00Z,28.9818,-94.9186,4.0,4.304056226,18.98195517,5.43,'11111222,11111222,11111222' 
TABS,ioos:station:wmo:42043:1,2006-09-03T16:30:00Z,28.9818,-94.9186,4.0,4.766308844,13.21962894,6.46,'11111222,11111222,11111222' 
TABS,ioos:station:wmo:42043:1,2006-09-03T17:00:00Z,28.9818,-94.9186,4.0,5.043857651,30.63228865,6.93,'11111222,11111222,11111222' 
TABS,ioos:station:wmo:42043:1,2006-09-03T17:30:00Z,28.9818,-94.9186,4.0,4.951009998,54.28709802,6.18,'11111222,11111222,11111222' 
TABS,ioos:station:wmo:42043:1,2006-09-03T18:00:00Z,28.9818,-94.9186,4.0,4.746546113,53.99891431,6.17,'11111222,11111222,11111222' 
TABS,ioos:station:wmo:42043:1,2006-09-03T18:30:00Z,28.9818,-94.9186,4.0,4.684410315,52.37141527,5.88,'11111222,11111222,11111222' 
TABS,ioos:station:wmo:42043:1,2006-09-03T19:00:00Z,28.9818,-94.9186,4.0,4.662284848,56.10508563,6.51,'11111222,11111222,11111222' 
TABS,ioos:station:wmo:42043:1,2006-09-03T19:30:00Z,28.9818,-94.9186,4.0,4.835049121,64.38854592,6.45,'11111222,11111222,11111222' 
TABS,ioos:station:wmo:42043:1,2006-09-03T20:00:00Z,28.9818,-94.9186,4.0,4.593843707,64.60600279,6.13,'11111222,11111222,11111222' 
TABS,ioos:station:wmo:42043:1,2006-09-03T20:30:00Z,28.9818,-94.9186,4.0,4.582324738,72.07869919,5.74,'11111222,11111222,11111222' 
TABS,ioos:station:wmo:42043:1,2006-09-03T21:00:00Z,28.9818,-94.9186,4.0,4.2276471,75.3388279,5.53,'11111222,11111222,11111222' 
TABS,ioos:station:wmo:42043:1,2006-09-03T21:30:00Z,28.9818,-94.9186,4.0,4.074530648,64.25214528,5.02,'11111222,11111222,11111222' 
TABS,ioos:station:wmo:42043:1,2006-09-03T22:00:00Z,28.9818,-94.9186,4.0,3.994621384,75.65028059,5.14,'11111222,11111222,11111222' 
TABS,ioos:station:wmo:42043:1,2006-09-03T22:30:00Z,28.9818,-94.9186,4.0,4.220426519,78.79617042,5.29,'11111222,11111222,11111222' 
TABS,ioos:station:wmo:42043:1,2006-09-03T23:00:00Z,28.9818,-94.9186,4.0,4.170299749,89.31261386,5.49,'11111222,11111222,11111222' 
TABS,ioos:station:wmo:42043:1,2006-09-03T23:30:00Z,28.9818,-94.9186,4.0,3.297347419,77.56503685,4.61,'11111222,11111222,11111222' 
TABS,ioos:station:wmo:42043:1,2006-09-04T00:00:00Z,28.9818,-94.9186,4.0,2.801731607,57.3873021,3.91,'11111222,11111222,11111222' 
TABS,ioos:station:wmo:42043:1,2006-09-04T00:30:00Z,28.9818,-94.9186,4.0,2.836353293,64.97054056,3.72,'11111222,11111222,11111222' 
TABS,ioos:station:wmo:42043:1,2006-09-04T01:00:00Z,28.9818,-94.9186,4.0,2.789157579,66.09971872,3.62,'11111222,11111222,11111222' 
TABS,ioos:station:wmo:42043:1,2006-09-04T01:30:00Z,28.9818,-94.9186,4.0,2.602767758,87.35703997,3.71,'11111222,11111222,11111222' 
TABS,ioos:station:wmo:42043:1,2006-09-04T02:00:00Z,28.9818,-94.9186,4.0,2.702961339,79.77059472,3.61,'11111222,11111222,11111222' 
TABS,ioos:station:wmo:42043:1,2006-09-04T02:30:00Z,28.9818,-94.9186,4.0,2.369345901,79.54335294,3.25,'11111222,11111222,11111222' 
TABS,ioos:station:wmo:42043:1,2006-09-04T03:00:00Z,28.9818,-94.9186,4.0,2.543324596,95.86791327,3.44,'11111222,11111222,11111222' 
TABS,ioos:station:wmo:42043:1,2006-09-04T03:30:00Z,28.9818,-94.9186,4.0,2.676060537,86.14278712,3.98,'11111222,11111222,11111222' 
TABS,ioos:station:wmo:42043:1,2006-09-04T04:00:00Z,28.9818,-94.9186,4.0,2.883903604,92.98187517,3.74,'11111222,11111222,11111222' 
TABS,ioos:station:wmo:42043:1,2006-09-04T04:30:00Z,28.9818,-94.9186,4.0,2.912541845,84.68049061,3.85,'11111222,11111222,11111222' 
TABS,ioos:station:wmo:42043:1,2006-09-04T05:00:00Z,28.9818,-94.9186,4.0,3.050590107,88.87259699,3.88,'11111222,11111222,11111222' 
TABS,ioos:station:wmo:42043:1,2006-09-04T05:30:00Z,28.9818,-94.9186,4.0,3.459537541,108.5400718,4.59,'11111222,11111222,11111222' 
TABS,ioos:station:wmo:42043:1,2006-09-04T06:00:00Z,28.9818,-94.9186,4.0,3.372906758,98.01038778,4.35,'11111222,11111222,11111222' 
TABS,ioos:station:wmo:42043:1,2006-09-04T06:30:00Z,28.9818,-94.9186,4.0,3.623534186,87.46882198,5.28,'11111222,11111222,11111222' 
TABS,ioos:station:wmo:42043:1,2006-09-04T07:00:00Z,28.9818,-94.9186,4.0,3.514612354,92.9360875,4.9,'11111222,11111222,11111222' 
TABS,ioos:station:wmo:42043:1,2006-09-04T07:30:00Z,28.9818,-94.9186,4.0,3.736161131,79.20095921,4.96,'11111222,11111222,11111222' 
TABS,ioos:station:wmo:42043:1,2006-09-04T08:00:00Z,28.9818,-94.9186,4.0,4.073843394,72.72110543,5.51,'11111222,11111222,11111222' 
TABS,ioos:station:wmo:42043:1,2006-09-04T08:30:00Z,28.9818,-94.9186,4.0,3.759414848,75.51979811,4.95,'11111222,11111222,11111222' 
TABS,ioos:station:wmo:42043:1,2006-09-04T09:00:00Z,28.9818,-94.9186,4.0,3.971901308,71.19973789,5.43,'11111222,11111222,11111222' 
TABS,ioos:station:wmo:42043:1,2006-09-04T09:30:00Z,28.9818,-94.9186,4.0,4.10007317,69.88518964,5.51,'11111222,11111222,11111222' 
TABS,ioos:station:wmo:42043:1,2006-09-04T10:00:00Z,28.9818,-94.9186,4.0,4.051123301,59.7635736,5.37,'11111222,11111222,11111222' 
TABS,ioos:station:wmo:42043:1,2006-09-04T10:30:00Z,28.9818,-94.9186,4.0,4.58105883,25.05440352,5.63,'11111222,11111222,11111222' 
TABS,ioos:station:wmo:42043:1,2006-09-04T11:00:00Z,28.9818,-94.9186,4.0,5.675958069,50.50429328,10.67,'11111222,11111222,11111222' 
TABS,ioos:station:wmo:42043:1,2006-09-04T11:30:00Z,28.9818,-94.9186,4.0,3.403762624,19.9253236,5.01,'11111222,11111222,11111222' 
TABS,ioos:station:wmo:42043:1,2006-09-04T12:00:00Z,28.9818,-94.9186,4.0,4.058990022,3.813855457,6.36,'11111222,11111222,11111222' 
TABS,ioos:station:wmo:42043:1,2006-09-04T12:30:00Z,28.9818,-94.9186,4.0,5.117548241,76.20775596,7.29,'11111222,11111222,11111222' 
TABS,ioos:station:wmo:42043:1,2006-09-04T13:00:00Z,28.9818,-94.9186,4.0,6.391126661,88.92373098,8.52,'11111222,11111222,11111222' 
TABS,ioos:station:wmo:42043:1,2006-09-04T13:30:00Z,28.9818,-94.9186,4.0,5.853246962,120.9473176,8.93,'11111222,11111222,11111222' 
TABS,ioos:station:wmo:42043:1,2006-09-04T14:00:00Z,28.9818,-94.9186,4.0,4.535239795,160.686361,5.64,'11111222,11111222,11111222' 
TABS,ioos:station:wmo:42043:1,2006-09-04T14:30:00Z,28.9818,-94.9186,4.0,3.424981752,84.63856165,5.35,'11111222,11111222,11111222' 
TABS,ioos:station:wmo:42043:1,2006-09-04T15:00:00Z,28.9818,-94.9186,4.0,7.478194969,59.90314812,9.87,'11111222,11111222,11111222' 
TABS,ioos:station:wmo:42043:1,2006-09-04T15:30:00Z,28.9818,-94.9186,4.0,7.003092174,67.49934257,8.77,'11111222,11111222,11111222' 
TABS,ioos:station:wmo:42043:1,2006-09-04T16:00:00Z,28.9818,-94.9186,4.0,6.292122059,61.31651304,8.27,'11111222,11111222,11111222' 
TABS,ioos:station:wmo:42043:1,2006-09-04T16:30:00Z,28.9818,-94.9186,4.0,6.078001316,69.68631189,8.23,'11111222,11111222,11111222' 
TABS,ioos:station:wmo:42043:1,2006-09-04T17:00:00Z,28.9818,-94.9186,4.0,5.464942818,70.76895168,6.83,'11111222,11111222,11111222' 
TABS,ioos:station:wmo:42043:1,2006-09-04T17:30:00Z,28.9818,-94.9186,4.0,5.05620411,69.62926161,6.76,'11111222,11111222,11111222' 
TABS,ioos:station:wmo:42043:1,2006-09-04T18:00:00Z,28.9818,-94.9186,4.0,4.940860249,74.02236301,6.64,'11111222,11111222,11111222' 
TABS,ioos:station:wmo:42043:1,2006-09-04T18:30:00Z,28.9818,-94.9186,4.0,4.981816938,70.29164633,6.72,'11111222,11111222,11111222' 